Location: Arrien
(42.8963°N, 1.0429°E)
Time: 09:14:37
(UTC+00:00)

Tiangong - Pass Details

Date: 17 February 2026
Orbit: 381 x 391 km, 41.5° (Epoch: 7 March)

Event Time Altitude Azimuth Distance (km) Brightness Sun altitude
Rises 18:08:47 0° 267° (W) 2,257 4.1 -7.8°
Reaches altitude 10° 18:10:52 10° 265° (W) 1,401 2.4 -8.2°
Maximum altitude 18:14:00 68° 182° (S) 414 -2.0 -8.8°
Enters shadow 18:16:47 13° 100° (E) 1,255 -0.2 -9.3°
